KD9SK-13 Weather Reports


time (UTC)temp
C
wind
direction
speed
KPH
gust
KPH
rain 1hr
cm
rain 24hr
cm
rain mn
cm
humidity
%
barometer
mb
20260510071504 18 174 0.0 0.0 0.00 0.00 0.00 93 1013.3
20260510071004 18 174 0.0 0.0 0.00 0.00 0.00 93 1013.3
20260510070504 18 174 0.0 0.0 0.00 0.00 0.00 93 1013.3
20260510070004 18 174 0.0 0.0 0.00 0.00 0.00 93 1013.3
20260510065503 19 174 0.0 0.0 0.00 0.00 0.00 93 1013.3
20260510065004 19 174 0.0 0.0 0.00 0.00 0.00 93 1013.3
20260510064504 19 174 0.0 0.0 0.00 0.00 0.00 92 1013.3
20260510064004 19 174 0.0 0.0 0.00 0.00 0.00 92 1013.5
20260510063504 19 174 0.0 0.0 0.00 0.00 0.00 92 1013.5
20260510063005 19 174 0.0 0.0 0.00 0.00 0.00 92 1013.5
20260510062504 20 174 0.0 0.0 0.00 0.00 0.00 91 1013.5
20260510062004 20 174 0.0 0.0 0.00 0.00 0.00 91 1013.7
20260510061505 20 174 0.0 0.0 0.00 0.00 0.00 91 1013.7
20260510061004 20 174 0.0 0.0 0.00 0.00 0.00 91 1013.7
20260510060504 20 174 0.0 0.0 0.00 0.00 0.00 91 1013.7
20260510055959 20 174 0.0 0.0 0.00 0.00 0.00 91 1013.6
20260510055458 20 174 0.0 0.0 0.00 0.00 0.00 90 1013.5
20260510054959 20 174 0.0 0.0 0.00 0.00 0.00 90 1013.7
20260510053458 21 174 0.0 0.0 0.00 0.00 0.00 90 1013.5
20260510052959 21 174 0.0 0.0 0.00 0.00 0.00 90 1013.5
20260510052459 21 174 0.0 0.0 0.00 0.00 0.00 90 1013.4
20260510051958 21 149 0.0 0.0 0.00 0.00 0.00 89 1013.3
20260510051459 21 139 0.0 0.0 0.00 0.00 0.00 89 1013.1
20260510050958 21 139 0.0 0.0 0.00 0.00 0.00 89 1013.1
20260510050500 21 139 0.0 1.6 0.00 0.00 0.00 88 1013.0
20260510045959 21 139 0.0 0.0 0.00 0.00 0.00 88 1013.0
20260510045459 21 139 0.0 1.6 0.00 0.00 0.00 88 1012.9
20260510044958 21 139 0.0 1.6 0.00 0.00 0.00 88 1012.9
20260510044459 21 146 0.0 0.0 0.00 0.00 0.00 87 1012.8
20260510043958 21 146 0.0 1.6 0.00 0.00 0.00 87 1012.8
20260510043459 21 86 0.0 1.6 0.00 0.00 0.00 87 1012.8
20260510042958 21 86 1.6 4.8 0.00 0.00 0.00 87 1012.8
20260510042458 21 110 0.0 0.0 0.00 0.00 0.00 86 1012.7
20260510041958 21 189 0.0 1.6 0.00 0.00 0.00 86 1012.7
20260510041458 22 135 0.0 1.6 0.00 0.00 0.00 85 1012.7
20260510040959 22 77 0.0 1.6 0.00 0.00 0.00 85 1012.8
20260510040458 22 77 1.6 8.0 0.00 0.00 0.00 85 1012.7
20260510035958 22 140 0.0 3.2 0.00 0.00 0.00 84 1012.6
20260510034959 22 202 1.6 4.8 0.00 0.00 0.00 83 1012.4
20260510034459 22 128 1.6 4.8 0.00 0.00 0.00 83 1012.4
20260510033958 22 135 1.6 9.7 0.00 0.00 0.00 83 1012.5
20260510033459 22 154 1.6 3.2 0.00 0.00 0.00 83 1012.5
20260510032959 22 82 1.6 4.8 0.00 0.00 0.00 83 1012.5
20260510032459 22 129 1.6 8.0 0.00 0.00 0.00 83 1012.4
20260510031959 22 358 1.6 3.2 0.00 0.00 0.00 83 1012.4
20260510031459 22 127 0.0 4.8 0.00 0.00 0.00 83 1012.4
20260510030958 22 225 0.0 3.2 0.00 0.00 0.00 83 1012.3
20260510025959 22 129 0.0 1.6 0.00 0.00 0.00 82 1012.1
20260510025459 22 110 1.6 3.2 0.00 0.00 0.00 82 1012.0
20260510024959 22 117 0.0 4.8 0.00 0.00 0.00 82 1011.9
20260510024459 22 112 1.6 4.8 0.00 0.00 0.00 82 1011.9
20260510023459 23 165 0.0 1.6 0.00 0.00 0.00 81 1011.8
20260510022958 23 116 0.0 1.6 0.00 0.00 0.00 81 1011.6
20260510022459 23 127 1.6 3.2 0.00 0.00 0.00 80 1011.5
20260510021958 23 121 0.0 1.6 0.00 0.00 0.00 80 1011.5
20260510021459 23 113 1.6 3.2 0.00 0.00 0.00 80 1011.5
20260510020959 23 132 0.0 1.6 0.00 0.00 0.00 80 1011.4
20260510015958 23 109 0.0 1.6 0.00 0.00 0.00 80 1011.2
20260510015459 23 109 0.0 1.6 0.00 0.00 0.00 80 1011.2
20260510014959 23 109 0.0 0.0 0.00 0.00 0.00 79 1011.2
20260510014458 23 107 0.0 0.0 0.00 0.00 0.00 79 1011.1
20260510013958 23 107 0.0 0.0 0.00 0.00 0.00 78 1011.1
20260510013459 23 107 0.0 1.6 0.00 0.00 0.00 78 1011.1
20260510013000 23 107 0.0 1.6 0.00 0.00 0.00 77 1010.9
20260510012458 23 107 0.0 1.6 0.00 0.00 0.00 77 1011.0
20260510011959 24 107 0.0 3.2 0.00 0.00 0.00 76 1010.9
20260510011458 24 92 0.0 3.2 0.00 0.00 0.00 76 1010.9
20260510010959 24 236 0.0 1.6 0.00 0.00 0.00 75 1010.8
20260510010500 25 194 0.0 0.0 0.00 0.00 0.00 74 1010.7
20260510005958 25 201 1.6 4.8 0.00 0.00 0.00 74 1010.6
20260510005459 25 101 0.0 1.6 0.00 0.00 0.00 73 1010.6
20260510004958 25 94 1.6 3.2 0.00 0.00 0.00 72 1010.6
20260510004458 25 119 0.0 3.2 0.00 0.00 0.00 71 1010.5
20260510003958 25 81 1.6 8.0 0.00 0.00 0.00 71 1010.4
20260510003500 26 115 1.6 4.8 0.00 0.00 0.00 70 1010.4
20260510002959 26 133 0.0 3.2 0.00 0.00 0.00 69 1010.4
20260510002459 26 120 1.6 4.8 0.00 0.00 0.00 67 1010.3
20260510001958 26 112 1.6 4.8 0.00 0.00 0.00 67 1010.2
20260510001458 26 107 3.2 8.0 0.00 0.00 0.00 66 1010.2
20260510000959 27 123 0.0 4.8 0.00 0.00 0.00 65 1010.2
20260510000459 27 191 1.6 4.8 0.00 0.00 0.00 63 1010.1
20260509235959 27 102 1.6 4.8 0.00 0.00 0.00 62 1010.0
20260509235458 27 104 0.0 1.6 0.00 0.00 0.00 62 1010.0
20260509234958 27 104 1.6 4.8 0.00 0.00 0.00 62 1010.0
20260509234458 28 132 0.0 3.2 0.00 0.00 0.00 60 1009.8
20260509233958 28 128 0.0 3.2 0.00 0.00 0.00 58 1009.8
20260509233459 28 125 0.0 1.6 0.00 0.00 0.00 56 1009.8
20260509232958 29 125 1.6 3.2 0.00 0.00 0.00 54 1009.8
20260509232459 30 113 0.0 4.8 0.00 0.00 0.00 55 1009.8
20260509231958 30 115 0.0 1.6 0.00 0.00 0.00 57 1009.7
20260509231458 29 115 0.0 1.6 0.00 0.00 0.00 60 1009.7
20260509230958 28 115 1.6 4.8 0.00 0.00 0.00 57 1009.7
20260509225958 28 143 0.0 0.0 0.00 0.00 0.00 58 1009.6
20260509225459 28 143 0.0 0.0 0.00 0.00 0.00 58 1009.6
20260509224959 28 143 0.0 3.2 0.00 0.00 0.00 58 1009.6
20260509224458 28 123 0.0 1.6 0.00 0.00 0.00 60 1009.6
20260509222958 28 134 0.0 1.6 0.00 0.00 0.00 55 1009.6
20260509222458 28 134 0.0 3.2 0.00 0.00 0.00 56 1009.5
20260509221959 29 126 0.0 4.8 0.00 0.00 0.00 54 1009.5
20260509221458 29 87 0.0 1.6 0.00 0.00 0.00 55 1009.5
20260509220959 28 87 0.0 4.8 0.00 0.00 0.00 59 1009.5
20260509215958 28 124 1.6 4.8 0.00 0.00 0.00 62 1009.5
20260509215459 28 103 0.0 3.2 0.00 0.00 0.00 58 1009.4
20260509214500 28 125 3.2 4.8 0.00 0.00 0.00 58 1009.5
20260509213959 28 129 3.2 4.8 0.00 0.00 0.00 58 1009.5
20260509213459 28 121 3.2 4.8 0.00 0.00 0.00 58 1009.5
20260509212458 27 140 1.6 3.2 0.00 0.00 0.00 60 1009.6
20260509212000 27 235 0.0 4.8 0.00 0.00 0.00 59 1009.7
20260509211458 27 137 3.2 8.0 0.00 0.00 0.00 60 1009.7
20260509210958 27 105 1.6 3.2 0.00 0.00 0.00 60 1009.8
20260509210459 27 123 0.0 1.6 0.00 0.00 0.00 60 1009.7
20260509205459 27 124 0.0 1.6 0.00 0.00 0.00 64 1010.0
20260509204958 27 124 0.0 1.6 0.00 0.00 0.00 62 1010.0
20260509204459 27 110 0.0 1.6 0.00 0.00 0.00 61 1010.0
20260509204000 27 117 0.0 1.6 0.00 0.00 0.00 60 1010.1
20260509203459 27 131 0.0 0.0 0.00 0.00 0.00 60 1010.1
20260509202958 27 131 0.0 3.2 0.00 0.00 0.00 59 1010.1
20260509202458 28 111 0.0 1.6 0.00 0.00 0.00 58 1010.1
20260509201959 28 121 1.6 4.8 0.00 0.00 0.00 60 1010.3
20260509201500 28 125 1.6 3.2 0.00 0.00 0.00 60 1010.4
20260509200959 27 133 1.6 3.2 0.00 0.00 0.00 58 1010.4
20260509200459 27 163 0.0 1.6 0.00 0.00 0.00 59 1010.5
20260509195959 27 253 1.6 1.6 0.00 0.00 0.00 59 1010.5
20260509195458 28 260 1.6 3.2 0.00 0.00 0.00 61 1010.6
20260509195000 27 129 0.0 4.8 0.00 0.00 0.00 60 1010.6
20260509194458 27 203 1.6 4.8 0.00 0.00 0.00 63 1010.7
20260509193459 27 128 0.0 4.8 0.00 0.00 0.00 61 1010.8
20260509192958 27 125 1.6 4.8 0.00 0.00 0.00 62 1010.8
20260509191959 27 118 3.2 4.8 0.00 0.00 0.00 61 1010.8
20260509191459 27 122 4.8 9.7 0.00 0.00 0.00 58 1010.8
20260509190959 27 124 1.6 4.8 0.00 0.00 0.00 61 1010.9
20260509190500 27 121 3.2 4.8 0.00 0.00 0.00 62 1010.9
20260509185958 26 123 1.6 3.2 0.00 0.00 0.00 62 1010.9
20260509184959 27 8 0.0 3.2 0.00 0.00 0.00 59 1010.9
20260509184459 27 8 0.0 3.2 0.00 0.00 0.00 59 1010.9
20260509183959 27 8 1.6 3.2 0.00 0.00 0.00 58 1011.0
20260509183500 27 348 1.6 3.2 0.00 0.00 0.00 59 1010.9
20260509182959 28 131 0.0 4.8 0.00 0.00 0.00 56 1010.9
20260509182459 28 8 1.6 4.8 0.00 0.00 0.00 56 1011.0
20260509181959 28 103 1.6 3.2 0.00 0.00 0.00 57 1011.0
20260509181459 27 136 0.0 3.2 0.00 0.00 0.00 58 1011.1
20260509175959 27 148 0.0 1.6 0.00 0.00 0.00 61 1011.2
20260509175500 27 3 0.0 3.2 0.00 0.00 0.00 59 1011.3
20260509174959 27 112 1.6 3.2 0.00 0.00 0.00 58 1011.2
20260509174459 27 281 1.6 3.2 0.00 0.00 0.00 58 1011.3
20260509173959 27 5 0.0 3.2 0.00 0.00 0.00 60 1011.3
20260509173500 27 6 1.6 3.2 0.00 0.00 0.00 59 1011.4
20260509173000 27 5 0.0 4.8 0.00 0.00 0.00 57 1011.4
20260509172459 27 40 1.6 3.2 0.00 0.00 0.00 56 1011.6
20260509171959 28 331 1.6 3.2 0.00 0.00 0.00 58 1011.6
20260509171459 28 257 0.0 4.8 0.00 0.00 0.00 58 1011.6
20260509170959 27 113 1.6 3.2 0.00 0.00 0.00 60 1011.5
20260509170459 28 130 1.6 4.8 0.00 0.00 0.00 58 1011.6
20260509165959 28 274 1.6 3.2 0.00 0.00 0.00 58 1011.6
20260509165458 28 122 1.6 3.2 0.00 0.00 0.00 59 1011.6
20260509165000 27 104 0.0 3.2 0.00 0.00 0.00 62 1011.5
20260509164459 27 235 0.0 1.6 0.00 0.00 0.00 60 1011.5
20260509163959 27 286 0.0 3.2 0.00 0.00 0.00 61 1011.4
20260509163459 27 126 0.0 3.2 0.00 0.00 0.00 62 1011.4
20260509162959 26 133 0.0 3.2 0.00 0.00 0.00 66 1011.4
20260509162459 26 136 0.0 4.8 0.00 0.00 0.00 68 1011.4
20260509161959 25 263 1.6 4.8 0.00 0.00 0.00 65 1011.4
20260509161458 25 347 1.6 4.8 0.00 0.00 0.00 66 1011.4
20260509160958 25 296 3.2 4.8 0.00 0.00 0.00 64 1011.4
20260509160459 25 322 1.6 4.8 0.00 0.00 0.00 65 1011.4
20260509155959 25 233 1.6 3.2 0.00 0.00 0.00 68 1011.4
20260509155459 25 326 1.6 4.8 0.00 0.00 0.00 66 1011.4
20260509153959 24 304 1.6 3.2 0.00 0.00 0.00 68 1011.3
20260509153459 24 284 1.6 4.8 0.00 0.00 0.00 70 1011.3
20260509151958 23 357 1.6 3.2 0.00 0.00 0.00 73 1011.4
20260509151459 23 349 1.6 3.2 0.00 0.00 0.00 73 1011.4
20260509150959 23 301 1.6 3.2 0.00 0.00 0.00 73 1011.5
20260509150459 23 4 1.6 3.2 0.00 0.00 0.00 74 1011.5
20260509145958 22 358 1.6 3.2 0.00 0.00 0.00 75 1011.6
20260509145459 22 348 1.6 3.2 0.00 0.00 0.00 75 1011.6
20260509144959 22 333 1.6 3.2 0.00 0.00 0.00 76 1011.7
20260509144459 22 328 1.6 4.8 0.00 0.00 0.00 77 1011.7
20260509143959 21 296 0.0 4.8 0.00 0.00 0.00 77 1011.7
20260509143500 21 3 1.6 4.8 0.00 0.00 0.00 77 1011.8
20260509142958 21 247 1.6 3.2 0.00 0.00 0.00 78 1011.8
20260509141959 21 279 1.6 3.2 0.00 0.00 0.00 79 1011.8
20260509140958 20 266 1.6 3.2 0.00 0.00 0.00 82 1011.8
20260509140459 20 210 0.0 3.2 0.00 0.00 0.00 84 1011.8
20260509135459 20 210 0.0 3.2 0.00 0.00 0.00 87 1012.0
20260509134959 19 210 0.0 1.6 0.00 0.00 0.00 88 1012.0
20260509134459 19 210 0.0 3.2 0.00 0.00 0.00 89 1012.0
20260509133959 19 210 0.0 1.6 0.00 0.00 0.00 89 1011.9
20260509133459 18 210 1.6 3.2 0.00 0.00 0.00 89 1011.9
20260509133000 18 210 0.0 3.2 0.00 0.00 0.00 89 1011.9
20260509132459 18 188 0.0 1.6 0.00 0.00 0.00 90 1012.0
20260509131959 18 135 0.0 1.6 0.00 0.00 0.00 91 1012.0
20260509131459 18 135 0.0 1.6 0.00 0.00 0.00 91 1012.0
20260509130959 18 135 0.0 0.0 0.00 0.00 0.00 92 1012.0
20260509130500 17 135 0.0 0.0 0.00 0.00 0.00 93 1011.9
20260509125958 17 135 0.0 0.0 0.00 0.00 0.00 94 1011.9
20260509125459 17 135 0.0 0.0 0.00 0.00 0.00 95 1011.8
20260509124958 16 135 0.0 0.0 0.00 0.00 0.00 96 1011.8
20260509124459 16 135 0.0 0.0 0.00 0.00 0.00 96 1011.7
20260509123959 16 135 0.0 1.6 0.00 0.00 0.00 96 1011.6
20260509123459 15 135 0.0 0.0 0.00 0.00 0.00 96 1011.5
20260509122959 15 135 0.0 0.0 0.00 0.00 0.00 95 1011.5
20260509122459 15 135 0.0 0.0 0.00 0.00 0.00 95 1011.5
20260509121959 15 135 0.0 0.0 0.00 0.00 0.00 95 1011.3
20260509120959 14 135 0.0 0.0 0.00 0.00 0.00 95 1011.2
20260509120459 14 135 0.0 0.0 0.00 0.00 0.00 95 1011.2
20260509115958 14 135 0.0 0.0 0.00 0.00 0.00 95 1011.2
20260509115459 14 135 0.0 0.0 0.00 0.00 0.00 95 1011.1
20260509114959 13 135 0.0 0.0 0.00 0.00 0.00 95 1011.0
20260509114459 13 135 0.0 0.0 0.00 0.00 0.00 95 1010.9
20260509113959 13 135 0.0 0.0 0.00 0.00 0.00 95 1010.9
20260509113459 13 135 0.0 0.0 0.00 0.00 0.00 95 1010.9
20260509112459 13 135 0.0 0.0 0.00 0.00 0.00 95 1010.9
20260509111959 13 135 0.0 0.0 0.00 0.00 0.00 95 1010.8
20260509111500 13 135 0.0 0.0 0.00 0.00 0.00 95 1010.7
20260509110958 13 135 0.0 0.0 0.00 0.00 0.00 95 1010.6
20260509105459 13 135 0.0 0.0 0.00 0.00 0.00 94 1010.4
20260509104959 13 135 0.0 0.0 0.00 0.00 0.00 94 1010.3
20260509104459 13 135 0.0 0.0 0.00 0.00 0.00 94 1010.3
20260509103959 14 135 0.0 0.0 0.00 0.00 0.00 94 1010.3
20260509103459 14 135 0.0 0.0 0.00 0.00 0.00 94 1010.1
20260509102959 14 135 0.0 0.0 0.00 0.00 0.00 94 1010.0
20260509102458 14 135 0.0 0.0 0.00 0.00 0.00 94 1009.8
20260509101959 14 135 0.0 0.0 0.00 0.00 0.00 94 1009.7
20260509101500 14 135 0.0 0.0 0.00 0.00 0.00 94 1009.6
20260509100959 14 135 0.0 0.0 0.00 0.00 0.00 94 1009.5
20260509100500 14 135 0.0 0.0 0.00 0.00 0.00 93 1009.6
20260509095459 15 135 0.0 0.0 0.00 0.00 0.00 93 1009.6
20260509094959 15 135 0.0 0.0 0.00 0.00 0.00 93 1009.7
20260509094459 15 135 0.0 0.0 0.00 0.00 0.00 93 1009.7
20260509093959 15 135 0.0 1.6 0.00 0.00 0.00 93 1009.7
20260509093459 15 135 0.0 0.0 0.00 0.00 0.00 93 1009.7
20260509092459 15 135 0.0 0.0 0.00 0.00 0.00 93 1009.8
20260509091459 15 135 0.0 0.0 0.00 0.00 0.00 93 1010.0
20260509090500 16 135 0.0 0.0 0.00 0.00 0.00 93 1010.0
20260509085959 16 135 0.0 1.6 0.00 0.00 0.00 94 1010.2
20260509084959 15 135 0.0 0.0 0.00 0.00 0.00 91 1010.0
20260509084459 16 135 0.0 0.0 0.00 0.00 0.00 91 1009.8
20260509083459 16 135 0.0 0.0 0.00 0.00 0.00 91 1009.7
20260509082458 16 135 0.0 0.0 0.00 0.00 0.00 92 1009.7
20260509081959 16 135 0.0 0.0 0.00 0.00 0.00 91 1009.7
20260509081459 16 135 0.0 0.0 0.00 0.00 0.00 91 1009.6
20260509080959 16 135 0.0 0.0 0.00 0.00 0.00 90 1009.8
20260509080459 16 135 0.0 0.0 0.00 0.00 0.00 90 1009.9
20260509075959 17 135 0.0 0.0 0.00 0.00 0.00 89 1009.8
20260509075500 17 135 0.0 0.0 0.00 0.00 0.00 89 1010.0
20260509074959 17 135 0.0 0.0 0.00 0.00 0.00 89 1010.1
20260509074459 17 135 0.0 0.0 0.00 0.00 0.00 89 1010.2
20260509073959 17 135 0.0 1.6 0.00 0.00 0.00 89 1010.3
20260509073459 17 135 0.0 0.0 0.00 0.00 0.00 89 1010.4
20260509073000 17 135 0.0 0.0 0.00 0.00 0.00 89 1010.5